Regional Weather Roundup
Issued by NWS Jackson, KY

Home | Current Version | Previous Version | Graphics & Text | Print | Product List | Glossary On
Versions: 1 2 3 4 5 6 7 8 9 10 11 12 13 14 15 16 17 18 19 20 21 22 23 24 25 26 27 28 29 30 31 32 33 34 35 36 37 38 39 40 41 42 43 44 45 46 47 48 49 50
000
ASUS43 KJKL 220505
RWRJKL

EAST KENTUCKY HOURLY WEATHER ROUNDUP
NATIONAL WEATHER SERVICE JACKSON KY
100 AM EDT WED OCT 22 2014

NOTE: "FAIR" INDICATES FEW OR NO CLOUDS BELOW 12,000 FEET WITH
NO SIGNIFICANT WEATHER AND/OR OBSTRUCTIONS TO VISIBILITY.

* THESE REPORTS ARE NOT UNDER NWS QUALITY CONTROL AND MAY NOT
  REPORT WEATHER SUCH AS PRECIPITATION AND FOG.

KYZ079-080-083-085-087-088-110-112-115-119-120-220600
...EASTERN KENTUCKY...

CITY           SKY/WX    TMP DP  RH WIND       PRES   REMARKS
JACKSON        CLOUDY    44  41  89 CALM      30.13S
LONDON         CLOUDY    50  41  71 N5        30.13S
SOMERSET*      CLOUDY    50  41  71 CALM      30.15S
MONTICELLO*    CLOUDY    49  44  83 CALM      30.15F
WILLIAMSBURG*  CLOUDY    48  41  76 CALM      30.13
MIDDLESBORO*   CLOUDY    48  41  76 N5        30.12S
HARLAN APT*    CLOUDY    45  41  87 CALM      30.11S
BLACK MTN*       N/A     36  36 100 N9          N/A  WCI  29
PIKEVILLE APT* CLOUDY    45  43  93 N6        30.11S
BIG SANDY*     CLOUDY    46  42  86 N6        30.12S
MOREHEAD APT*  PTCLDY    45  39  81 N5        30.17S
$$

KYZ035-036-041-042-044-050-067-078-099-220600
...CENTRAL KENTUCKY...

CITY           SKY/WX    TMP DP  RH WIND       PRES   REMARKS
MT STERLING*   CLEAR     45  41  87 NE6       30.17S
FLEMING/MASON* CLOUDY    44  40  87 N3        30.17S
DANVILLE*      CLOUDY    48  41  76 NE5       30.16S
RICHMOND*      CLOUDY    48  41  76 NE3       30.14S
LEXINGTON      CLEAR     48  41  76 N7        30.16S
FRANKFORT      CLEAR     47  40  76 N6        30.16S
$$

KYZ091>093-OHZ055-061-077-WVZ005-015-034-035-042-220600
...SOUTHERN OHIO/WEST VIRGINIA...

CITY           SKY/WX    TMP DP  RH WIND       PRES   REMARKS
COVINGTON      CLOUDY    48  37  65 NE9       30.17S
COLUMBUS       CLOUDY    45  39  79 NW10      30.14S
DAYTON         CLOUDY    45  39  79 N10       30.20S
WILMINGTON     CLOUDY    45  37  73 N9        30.16F
HUNTINGTON     CLOUDY    45  41  86 N3        30.12F
CHARLESTON     CLOUDY    47  43  86 NW7       30.09F
PINEVILLE*     CLOUDY    46  46  97 MISG      30.12S
BECKLEY        CLOUDY    42  39  89 NW9       30.04F
BLUEFIELD      LGT RAIN  43  39  86 VRB3      30.04F
$$

VAZ002-007-008-TNZ017-027-036-066-071-220600
...SOUTHWEST VIRGINIA/EAST TENNESSEE...

CITY           SKY/WX    TMP DP  RH WIND       PRES   REMARKS
WISE*          CLOUDY    45  37  76 NW6       30.09S
JONESVILLE*    CLOUDY    43  41  93 CALM      30.12F
ABINGDON*      CLOUDY    48  40  75 NW3       30.07F
BRISTOL        CLOUDY    47  40  76 CALM      30.08F
KNOXVILLE      PTCLDY    48  40  73 N6        30.09F
OAK RIDGE      CLEAR     46  42  86 CALM      30.12F
CROSSVILLE     CLEAR     46  38  73 N6        30.12S
NASHVILLE      CLEAR     52  43  71 N5        30.15S
$$

...KEY TO REMARKS...
VSB - VISIBILITY IN MILES
WCI - WIND CHILL INDEX
HX  - HEAT INDEX

$$



USA.gov is the U.S. government's official web portal to all federal, state and local government web resources and services.